CPA903 VHHH-RPLL

Flight info

Callsign CPA903
Flight time 1h 28m
Altitude 39000
Route DALOL DCT NOMAN A461 CAB CAB7R
Aircraft A35K/H-SDE2E3GHIJ1J3J4J5LM1ORWXY/LB1D1

Departure

Time 2026-05-04 08:57
Airport Hong Kong International Airport (VHHH)

Arrival

Time 2026-05-04 10:26
Airport Ninoy Aquino International Airport (RPLL)
Time Latitude Longitude Altitude Speed Heading
2026-05-04 07:59 22.31811 113.93254 38 ft 0 kts 71°
2026-05-04 08:38 22.31810 113.93252 38 ft 2 kts 71°
2026-05-04 08:38 22.31802 113.93225 37 ft 4 kts 71°
2026-05-04 08:38 22.31793 113.93198 35 ft 4 kts 71°
2026-05-04 08:40 22.31817 113.93138 36 ft 0 kts 161°
2026-05-04 08:46 22.31565 113.93036 38 ft 11 kts 251°
2026-05-04 08:46 22.31533 113.92938 38 ft 15 kts 251°
2026-05-04 08:46 22.31499 113.92833 38 ft 15 kts 251°
2026-05-04 08:46 22.31504 113.92730 38 ft 14 kts 294°
2026-05-04 08:47 22.31546 113.92638 38 ft 13 kts 296°
2026-05-04 08:47 22.31586 113.92548 38 ft 13 kts 296°
2026-05-04 08:47 22.31626 113.92459 38 ft 13 kts 295°
2026-05-04 08:47 22.31642 113.92370 38 ft 12 kts 258°
2026-05-04 08:48 22.31615 113.92283 38 ft 12 kts 250°
2026-05-04 08:48 22.31585 113.92192 38 ft 13 kts 251°
2026-05-04 08:48 22.31554 113.92096 38 ft 14 kts 246°
2026-05-04 08:48 22.31477 113.92076 38 ft 13 kts 163°
2026-05-04 08:49 22.31389 113.92109 38 ft 14 kts 161°
2026-05-04 08:50 22.30635 113.92368 38 ft 1 kts 204°
2026-05-04 08:50 22.30621 113.92334 38 ft 10 kts 249°
2026-05-04 08:51 22.30588 113.92231 38 ft 20 kts 251°
2026-05-04 08:51 22.30531 113.92054 38 ft 27 kts 251°
2026-05-04 08:51 22.30467 113.91856 38 ft 29 kts 251°
2026-05-04 08:51 22.30399 113.91646 38 ft 30 kts 251°
2026-05-04 08:52 22.30328 113.91427 38 ft 32 kts 251°
2026-05-04 08:52 22.30259 113.91212 38 ft 29 kts 251°
2026-05-04 08:52 22.30190 113.90999 38 ft 31 kts 251°
2026-05-04 08:52 22.30122 113.90786 38 ft 29 kts 251°
2026-05-04 08:53 22.30053 113.90572 38 ft 31 kts 251°
2026-05-04 08:54 22.29678 113.89986 36 ft 10 kts 71°
2026-05-04 08:55 22.29681 113.89995 36 ft 0 kts 71°
2026-05-04 08:55 22.29683 113.90001 36 ft 2 kts 70°
2026-05-04 08:55 22.29687 113.90014 36 ft 9 kts 70°
2026-05-04 08:55 22.29785 113.90314 36 ft 81 kts 71°
2026-05-04 08:57 22.32610 113.99516 3743 ft 220 kts 70°
2026-05-04 09:01 22.14698 114.11127 12387 ft 375 kts 133°
2026-05-04 09:01 22.13356 114.13599 13060 ft 388 kts 118°
2026-05-04 09:01 22.12211 114.16271 13693 ft 396 kts 118°
2026-05-04 09:01 22.11024 114.18979 14277 ft 401 kts 120°
2026-05-04 09:02 22.09793 114.21689 14884 ft 404 kts 120°
2026-05-04 09:02 22.08513 114.24397 15491 ft 406 kts 123°
2026-05-04 09:02 22.06819 114.26801 16068 ft 399 kts 142°
2026-05-04 09:02 22.04671 114.28667 16673 ft 398 kts 149°
2026-05-04 09:03 22.02421 114.30426 17264 ft 401 kts 149°
2026-05-04 09:03 22.00144 114.32198 17860 ft 405 kts 149°
2026-05-04 09:03 21.97850 114.33992 18454 ft 408 kts 149°
2026-05-04 09:03 21.95547 114.35799 18948 ft 412 kts 149°
2026-05-04 09:04 21.93248 114.37614 19457 ft 416 kts 149°
2026-05-04 09:04 21.90907 114.39454 19954 ft 419 kts 149°
2026-05-04 09:04 21.88544 114.41332 20477 ft 424 kts 147°
2026-05-04 09:04 21.86353 114.43500 21004 ft 434 kts 136°
2026-05-04 09:05 21.84606 114.46190 21529 ft 445 kts 121°
2026-05-04 09:05 21.83441 114.49305 22041 ft 453 kts 109°
2026-05-04 09:05 21.82580 114.52591 22563 ft 457 kts 108°
2026-05-04 09:05 21.81751 114.55905 23064 ft 461 kts 108°
2026-05-04 09:06 21.80907 114.59243 23568 ft 464 kts 108°
2026-05-04 09:07 21.74433 114.83036 26719 ft 482 kts 120°
2026-05-04 09:08 21.72697 114.86096 27184 ft 478 kts 131°
2026-05-04 09:08 21.70526 114.88790 27649 ft 478 kts 137°
2026-05-04 09:08 21.68203 114.91359 28109 ft 480 kts 140°
2026-05-04 09:08 21.65812 114.93879 28571 ft 483 kts 141°
2026-05-04 09:09 21.63390 114.96389 29034 ft 486 kts 141°
2026-05-04 09:09 21.60943 114.98925 29464 ft 489 kts 141°
2026-05-04 09:09 21.58493 115.01482 29902 ft 493 kts 140°
2026-05-04 09:09 21.56031 115.04070 30269 ft 497 kts 140°
2026-05-04 09:10 21.53563 115.06677 30614 ft 500 kts 140°
2026-05-04 09:10 21.51076 115.09312 30954 ft 504 kts 140°
2026-05-04 09:10 21.48574 115.11966 31297 ft 507 kts 140°
2026-05-04 09:10 21.46059 115.14634 31628 ft 510 kts 140°
2026-05-04 09:11 21.43528 115.17318 31954 ft 513 kts 140°
2026-05-04 09:11 21.40982 115.20015 32276 ft 516 kts 140°
2026-05-04 09:11 21.38423 115.22723 32634 ft 517 kts 140°
2026-05-04 09:11 21.35859 115.25436 32979 ft 519 kts 140°
2026-05-04 09:12 21.33313 115.28128 33236 ft 522 kts 140°
2026-05-04 09:12 21.30713 115.30874 33501 ft 525 kts 140°
2026-05-04 09:14 21.12400 115.50185 35690 ft 528 kts 140°
2026-05-04 09:14 21.09778 115.52942 35977 ft 528 kts 140°
2026-05-04 09:14 21.08041 115.54768 36170 ft 528 kts 140°
2026-05-04 09:14 21.05422 115.57520 36453 ft 528 kts 140°
2026-05-04 09:15 21.02799 115.60275 36749 ft 527 kts 140°
2026-05-04 09:15 21.00191 115.63014 37127 ft 525 kts 140°
2026-05-04 09:15 20.97588 115.65747 37416 ft 524 kts 140°
2026-05-04 09:15 20.94985 115.68477 37748 ft 523 kts 140°
2026-05-04 09:17 20.74160 115.90267 38972 ft 524 kts 140°
2026-05-04 09:18 20.68944 115.95711 38968 ft 524 kts 140°
2026-05-04 09:18 20.63737 116.01142 38968 ft 521 kts 139°
2026-05-04 09:19 20.58595 116.06499 38971 ft 519 kts 139°
2026-05-04 09:19 20.53416 116.11886 38972 ft 519 kts 139°
2026-05-04 09:20 20.48238 116.17269 38971 ft 519 kts 139°
2026-05-04 09:20 20.43060 116.22645 38969 ft 519 kts 139°
2026-05-04 09:21 20.37880 116.28020 38966 ft 519 kts 139°
2026-05-04 09:21 20.32740 116.33347 38965 ft 518 kts 139°
2026-05-04 09:22 20.27582 116.38689 38965 ft 516 kts 139°
2026-05-04 09:22 20.22441 116.44007 38967 ft 515 kts 139°
2026-05-04 09:23 20.17297 116.49322 38964 ft 515 kts 139°
2026-05-04 09:23 20.12156 116.54629 38963 ft 515 kts 139°
2026-05-04 09:25 19.91964 116.76285 38963 ft 517 kts 135°
2026-05-04 09:26 19.87208 116.81951 38958 ft 517 kts 135°
2026-05-04 09:26 19.82378 116.87606 38958 ft 517 kts 136°
2026-05-04 09:27 19.77520 116.93233 38957 ft 516 kts 136°
2026-05-04 09:27 19.72660 116.98847 38958 ft 516 kts 136°
2026-05-04 09:28 19.67794 117.04464 38958 ft 516 kts 136°
2026-05-04 09:28 19.62932 117.10074 38957 ft 516 kts 136°
2026-05-04 09:29 19.58066 117.15684 38949 ft 516 kts 136°
2026-05-04 09:29 19.53204 117.21285 38955 ft 516 kts 136°
2026-05-04 09:30 19.48373 117.26844 38958 ft 516 kts 136°
2026-05-04 09:30 19.43509 117.32435 38952 ft 516 kts 136°
2026-05-04 09:31 19.38652 117.38015 38952 ft 516 kts 136°
2026-05-04 09:31 19.33780 117.43604 38952 ft 516 kts 136°
2026-05-04 09:32 19.28914 117.49182 38948 ft 516 kts 136°
2026-05-04 09:34 19.09433 117.71463 38941 ft 515 kts 136°
2026-05-04 09:34 19.04594 117.76985 38942 ft 515 kts 136°
2026-05-04 09:35 18.99714 117.82550 38941 ft 515 kts 136°
2026-05-04 09:35 18.94838 117.88102 38938 ft 515 kts 136°
2026-05-04 09:37 18.75332 118.10264 38928 ft 513 kts 136°
2026-05-04 09:38 18.70473 118.15772 38938 ft 512 kts 136°
2026-05-04 09:38 18.65647 118.21239 38928 ft 512 kts 136°
2026-05-04 09:39 18.60791 118.26733 38930 ft 512 kts 136°
2026-05-04 09:39 18.55931 118.32227 38926 ft 512 kts 136°
2026-05-04 09:40 18.51068 118.37721 38927 ft 512 kts 136°
2026-05-04 09:40 18.46241 118.43168 38921 ft 511 kts 136°
2026-05-04 09:42 18.26824 118.65034 38915 ft 511 kts 136°
2026-05-04 09:43 18.21961 118.70498 38918 ft 511 kts 136°
2026-05-04 09:43 18.17100 118.75955 38917 ft 512 kts 136°
2026-05-04 09:44 18.12228 118.81419 38912 ft 512 kts 136°
2026-05-04 09:46 17.92779 119.03195 38902 ft 512 kts 135°
2026-05-04 09:46 17.87899 119.08638 38912 ft 512 kts 135°
2026-05-04 09:47 17.83014 119.14084 38912 ft 512 kts 135°
2026-05-04 09:49 17.63541 119.35762 38907 ft 509 kts 135°
2026-05-04 09:51 17.46551 119.54615 38904 ft 509 kts 135°
2026-05-04 09:51 17.41684 119.60006 38904 ft 509 kts 135°
2026-05-04 09:52 17.36812 119.65398 38896 ft 509 kts 135°
2026-05-04 09:52 17.31943 119.70782 38906 ft 509 kts 135°
2026-05-04 09:53 17.27070 119.76167 38902 ft 509 kts 135°
2026-05-04 09:53 17.22199 119.81544 38901 ft 509 kts 135°
2026-05-04 09:54 17.17361 119.86881 38902 ft 509 kts 135°
2026-05-04 09:54 17.12487 119.92253 38903 ft 509 kts 135°
2026-05-04 09:55 17.07614 119.97619 38895 ft 509 kts 135°
2026-05-04 09:55 17.02733 120.02990 38898 ft 509 kts 135°
2026-05-04 09:56 16.97852 120.08356 38893 ft 509 kts 135°
2026-05-04 09:56 16.92975 120.13715 38895 ft 508 kts 135°
2026-05-04 09:57 16.88103 120.19063 38905 ft 508 kts 135°
2026-05-04 09:57 16.83228 120.24410 38906 ft 508 kts 135°
2026-05-04 09:58 16.78381 120.29722 38922 ft 508 kts 135°
2026-05-04 09:58 16.73409 120.34958 38921 ft 506 kts 143°
2026-05-04 10:00 16.51948 120.47033 38938 ft 500 kts 156°
2026-05-04 10:00 16.48863 120.48690 38930 ft 499 kts 156°
2026-05-04 10:02 16.27256 120.60280 38731 ft 497 kts 156°
2026-05-04 10:04 16.05692 120.71815 36471 ft 504 kts 155°
2026-05-04 10:04 16.02554 120.73491 36221 ft 505 kts 155°
2026-05-04 10:04 15.99424 120.75163 35990 ft 507 kts 155°
2026-05-04 10:04 15.96286 120.76839 35678 ft 506 kts 155°
2026-05-04 10:05 15.93160 120.78508 35102 ft 503 kts 155°
2026-05-04 10:05 15.91101 120.79606 34687 ft 503 kts 155°
2026-05-04 10:05 15.87976 120.81273 34052 ft 502 kts 155°
2026-05-04 10:05 15.84871 120.82929 33349 ft 501 kts 155°
2026-05-04 10:06 15.81767 120.84584 32652 ft 500 kts 155°
2026-05-04 10:06 15.78675 120.86231 31969 ft 499 kts 154°
2026-05-04 10:06 15.75590 120.87875 31301 ft 496 kts 154°
2026-05-04 10:08 15.58240 120.97108 27158 ft 446 kts 154°
2026-05-04 10:08 15.55490 120.98569 26487 ft 440 kts 153°
2026-05-04 10:08 15.52822 120.99986 25839 ft 433 kts 153°
2026-05-04 10:08 15.50160 121.01399 25199 ft 428 kts 153°
2026-05-04 10:09 15.47428 121.02567 24589 ft 423 kts 165°
2026-05-04 10:09 15.44573 121.03273 23961 ft 419 kts 168°
2026-05-04 10:09 15.41736 121.03882 23338 ft 415 kts 168°
2026-05-04 10:09 15.38925 121.04484 22576 ft 409 kts 168°
2026-05-04 10:10 15.36150 121.05085 21869 ft 405 kts 167°
2026-05-04 10:10 15.33409 121.05681 21186 ft 400 kts 167°
2026-05-04 10:10 15.30694 121.06272 20516 ft 395 kts 167°
2026-05-04 10:10 15.28028 121.06853 19967 ft 387 kts 167°
2026-05-04 10:11 15.25402 121.07426 19497 ft 383 kts 167°
2026-05-04 10:11 15.22802 121.07994 19069 ft 379 kts 167°
2026-05-04 10:11 15.20233 121.08551 18648 ft 375 kts 167°
2026-05-04 10:11 15.17633 121.08737 18244 ft 379 kts 185°
2026-05-04 10:12 15.15080 121.08048 17780 ft 381 kts 202°
2026-05-04 10:12 15.12699 121.06833 17261 ft 381 kts 207°
2026-05-04 10:12 15.10371 121.05542 16763 ft 379 kts 207°
2026-05-04 10:12 15.08061 121.04248 16276 ft 377 kts 207°
2026-05-04 10:13 15.05790 121.02976 15803 ft 374 kts 207°
2026-05-04 10:13 15.03517 121.01677 15376 ft 372 kts 207°
2026-05-04 10:13 15.01229 121.00362 14992 ft 371 kts 207°
2026-05-04 10:13 14.99007 120.99079 14617 ft 370 kts 207°
2026-05-04 10:14 14.96759 120.97783 14245 ft 368 kts 207°
2026-05-04 10:14 14.94523 120.96493 13812 ft 367 kts 207°
2026-05-04 10:16 14.79269 120.87785 10010 ft 341 kts 207°
2026-05-04 10:16 14.77240 120.86618 9442 ft 327 kts 207°
2026-05-04 10:16 14.75284 120.85493 8865 ft 315 kts 207°
2026-05-04 10:16 14.73379 120.84401 8314 ft 313 kts 207°
2026-05-04 10:17 14.71466 120.83309 7760 ft 315 kts 207°
2026-05-04 10:17 14.69552 120.82222 7328 ft 312 kts 207°
2026-05-04 10:19 14.56618 120.74936 4289 ft 296 kts 207°
2026-05-04 10:19 14.54852 120.73919 3806 ft 295 kts 207°
2026-05-04 10:19 14.53076 120.72903 3329 ft 289 kts 206°
2026-05-04 10:19 14.51201 120.72247 2863 ft 283 kts 184°
2026-05-04 10:20 14.49316 120.72485 2633 ft 267 kts 158°
2026-05-04 10:20 14.47683 120.73303 2507 ft 259 kts 148°
2026-05-04 10:20 14.46125 120.74239 2494 ft 259 kts 147°
2026-05-04 10:20 14.44568 120.75182 2498 ft 260 kts 147°
2026-05-04 10:21 14.43029 120.76179 2494 ft 260 kts 138°
2026-05-04 10:21 14.41977 120.77644 2495 ft 254 kts 110°
2026-05-04 10:21 14.41667 120.79418 2498 ft 252 kts 90°
2026-05-04 10:21 14.41683 120.81229 2496 ft 252 kts 88°
2026-05-04 10:22 14.41823 120.84827 2494 ft 252 kts 85°
2026-05-04 10:22 14.42181 120.86596 2499 ft 253 kts 69°
2026-05-04 10:22 14.43010 120.88150 2481 ft 241 kts 57°
2026-05-04 10:23 14.43912 120.89550 2315 ft 229 kts 59°
2026-05-04 10:23 14.44700 120.90923 2019 ft 215 kts 64°
2026-05-04 10:25 14.48805 120.98247 499 ft 138 kts 64°
2026-05-04 10:25 14.49291 120.99113 316 ft 138 kts 64°
2026-05-04 10:25 14.49767 120.99991 107 ft 145 kts 62°
2026-05-04 10:25 14.50254 121.00862 48 ft 125 kts 60°
2026-05-04 10:26 14.50612 121.01506 47 ft 82 kts 60°
2026-05-04 10:26 14.50819 121.01880 52 ft 38 kts 60°
2026-05-04 10:26 14.50919 121.02059 52 ft 27 kts 60°
2026-05-04 10:26 14.51030 121.02216 56 ft 22 kts 45°
2026-05-04 10:27 14.51120 121.02294 58 ft 12 kts 37°
2026-05-04 10:27 14.51171 121.02302 57 ft 0 kts 335°
2026-05-04 10:27 14.51172 121.02301 57 ft 0 kts 333°
2026-05-04 10:27 14.51182 121.02293 56 ft 3 kts 319°
2026-05-04 10:28 14.51187 121.02278 60 ft 3 kts 282°
2026-05-04 10:28 14.51180 121.02248 56 ft 7 kts 250°
2026-05-04 10:28 14.51148 121.02185 55 ft 12 kts 241°
2026-05-04 10:28 14.51105 121.02106 53 ft 11 kts 239°
2026-05-04 10:29 14.51062 121.02028 55 ft 14 kts 240°
2026-05-04 10:29 14.51029 121.01968 55 ft 0 kts 240°
2026-05-04 10:29 14.51027 121.01965 55 ft 0 kts 240°
2026-05-04 10:29 14.51027 121.01964 55 ft 0 kts 243°
2026-05-04 10:30 14.51026 121.01960 56 ft 1 kts 250°
2026-05-04 10:30 14.51025 121.01947 56 ft 2 kts 269°
2026-05-04 10:30 14.51030 121.01934 57 ft 2 kts 297°
2026-05-04 10:30 14.51042 121.01918 59 ft 4 kts 309°
2026-05-04 10:31 14.51066 121.01892 56 ft 6 kts 313°
2026-05-04 10:31 14.51106 121.01849 55 ft 10 kts 314°
2026-05-04 10:32 14.51347 121.01598 53 ft 8 kts 315°
2026-05-04 10:33 14.51402 121.01581 53 ft 9 kts 18°
2026-05-04 10:33 14.51468 121.01574 54 ft 11 kts 326°
2026-05-04 10:33 14.51535 121.01509 53 ft 15 kts 315°
2026-05-04 10:33 14.51607 121.01435 49 ft 16 kts 315°
2026-05-04 10:34 14.51636 121.01404 48 ft 0 kts 315°
2026-05-04 10:34 14.51639 121.01402 49 ft 1 kts 322°
2026-05-04 10:34 14.51654 121.01407 50 ft 4 kts 21°
2026-05-04 10:35 14.51667 121.01422 48 ft 3 kts 58°
2026-05-04 10:35 14.51685 121.01451 50 ft 5 kts 44°
2026-05-04 10:35 14.51704 121.01470 49 ft 0 kts 45°